Location: Poughquag
(41.6090°N, 73.6820°W)
Time: 09:19:11
(UTC-05:00)

Vanguard 1 - Pass Details

Date: 29 November 2023
Orbit: 653 x 3826 km, 34.3° (Epoch: 25 February)

Event Time Altitude Azimuth Distance (km) Brightness Sun altitude
Rises 16:30:44 0° 197° (SSW) 5,618 14.7 -1.6°
Reaches altitude 10° 16:34:42 10° 186° (S) 5,048 14.2 -2.3°
Maximum altitude 16:47:24 29° 133° (SE) 4,720 13.3 -4.4°
Drops below altitude 10° 17:04:30 10° 84° (E) 6,899 13.7 -7.3°
Enters shadow 17:06:50 - 80° (E) 7,270 13.8 -7.7°
Sets 17:11:09 0° 75° (ENE) 7,967 - -8.5°
